User: anonymous   Login
Location: Unspecified
(0.0000°N, 0.0000°E)
Time: 20:25:28
(UTC+00:00)
Language:

STARLINK-11156 [DTC] - Orbit

View from above orbital plane
View from above orbital plane
View from above satellite
View from above satellite

Ground track
Ground track

The orbit is defined by the following mean orbital elements,

1 61056U          26145.38524808 +.00000000 +00000-0 +10071-4 0 00000
2 61056  53.1588 292.5336 0000860  64.2145 295.8961 15.68837968    07
Epoch (UTC): 25 May 2026 09:14:45
Eccentricity: 0.0000860
inclination: 53.1588°
perigee height: 362 km
apogee height: 363 km
right ascension of ascending node: 292.5336°
argument of perigee: 64.2145°
revolutions per day: 15.68837968
mean anomaly at epoch: 295.8961°

The dashed part of the orbit path shows where the satellite is in the earth's shadow,  

DLR